Starlink 3509

operational
NORAD ID: 51737 Int'l Des: 2022-016 Owner: SPXS Country: US Constellation: starlink
LEOCIRCULAR

Über Starlink 3509

Beschreibung wird geladen...

Live-Position

3D-Globus wird geladen...

Nächste Überflüge

Höhenverlauf

Altitude vs Time

uPlot chart will show altitude changes over time

Zweizeiliger Elementsatz

1 51737U 22016Z 25302.96414630 .00002233 00000-0 15830-3 0 9999
2 51737 53.2155 185.9712 0001353 89.6653 270.4494 15.08842842203825
Epoch: 29. Okt. 2025 • Age: 28 hours

Aktueller Status

Höhe 539.9 km
Geschwindigkeit 7.60 km/s
Subsatellitenpunkt 21.80°N, 98.75°W
Startdatum 21. Feb. 2022
Alter 3.6 years
Typ internet

Technische Details

Klassifizierung Payload
Masse 297.00 kg
Trockenmasse 275.00 kg
Gesamtmasse 297.00 kg
Länge 0.20 m
Durchmesser 2.80 m
Spannweite 9.00 m
Form Box + pan
Hersteller SPXS
Bus-Typ Starlink
Phasenstatus In Orbit
Besitzer/Staat SPXS/US

Große Konstellationen

Loading constellations...